Time,TemperatureF,DewpointF,PressureIn,WindDirection,WindDirectionDegrees,WindSpeedMPH,WindSpeedGustMPH,Humidity,HourlyPrecipIn,Conditions,Clouds,dailyrainin,SoftwareType,DateUTC
2013-04-10 00:03:00,49.0,-99.9,29.97,SSE,154,10.0,-999.0,-999,-99.99,,,-99.99,,2013-04-10 04:03:00,
2013-04-10 00:13:00,49.0,-99.9,29.97,SSE,154,10.0,-999.0,-999,-99.99,,,-99.99,,2013-04-10 04:13:00,
2013-04-10 00:23:00,49.0,-99.9,29.97,SSW,201,12.0,-999.0,-999,-99.99,,,-99.99,,2013-04-10 04:23:00,
2013-04-10 00:33:00,49.0,-99.9,29.97,SSW,201,12.0,-999.0,-999,-99.99,,,-99.99,,2013-04-10 04:33:00,
2013-04-10 00:43:00,49.0,-99.9,29.97,SSW,201,12.0,-999.0,-999,-99.99,,,-99.99,,2013-04-10 04:43:00,
2013-04-10 00:53:00,49.0,-99.9,29.96,SSE,158,8.0,-999.0,-999,-99.99,,,-99.99,,2013-04-10 04:53:00,
2013-04-10 01:03:00,49.0,-99.9,29.96,SSE,158,8.0,-999.0,-999,-99.99,,,-99.99,,2013-04-10 05:03:00,
2013-04-10 01:13:00,49.0,-99.9,29.96,SSE,158,8.0,-999.0,-999,-99.99,,,-99.99,,2013-04-10 05:13:00,
2013-04-10 01:23:00,49.0,-99.9,29.94,SSE,167,8.0,-999.0,-999,-99.99,,,-99.99,,2013-04-10 05:23:00,
2013-04-10 01:33:00,49.0,-99.9,29.94,SSE,167,8.0,-999.0,-999,-99.99,,,-99.99,,2013-04-10 05:33:00,
2013-04-10 01:43:00,49.0,-99.9,29.94,SSE,167,8.0,-999.0,-999,-99.99,,,-99.99,,2013-04-10 05:43:00,
2013-04-10 01:53:00,48.0,-99.9,29.91,South,191,11.0,-999.0,-999,-99.99,,,-99.99,,2013-04-10 05:53:00,
2013-04-10 02:03:00,48.0,-99.9,29.91,South,191,11.0,-999.0,-999,-99.99,,,-99.99,,2013-04-10 06:03:00,
2013-04-10 02:12:00,48.0,-99.9,29.91,South,191,11.0,-999.0,-999,-99.99,,,-99.99,,2013-04-10 06:12:00,
2013-04-10 02:22:00,48.0,-99.9,29.91,SSW,209,6.0,-999.0,-999,-99.99,,,-99.99,,2013-04-10 06:22:00,
2013-04-10 02:32:00,48.0,-99.9,29.91,SSW,209,6.0,-999.0,-999,-99.99,,,-99.99,,2013-04-10 06:32:00,
2013-04-10 02:43:00,48.0,-99.9,29.91,SSW,209,6.0,-999.0,-999,-99.99,,,-99.99,,2013-04-10 06:43:00,
2013-04-10 02:52:00,48.0,-99.9,29.90,South,184,7.0,-999.0,-999,-99.99,,,-99.99,,2013-04-10 06:52:00,
2013-04-10 03:02:00,48.0,-99.9,29.90,South,184,7.0,-999.0,-999,-99.99,,,-99.99,,2013-04-10 07:02:00,
2013-04-10 03:12:00,48.0,-99.9,29.90,South,184,7.0,-999.0,-999,-99.99,,,-99.99,,2013-04-10 07:12:00,
2013-04-10 03:23:00,49.0,-99.9,29.88,SE,143,8.0,-999.0,-999,-99.99,,,-99.99,,2013-04-10 07:23:00,
2013-04-10 03:33:00,49.0,-99.9,29.88,SE,143,8.0,-999.0,-999,-99.99,,,-99.99,,2013-04-10 07:33:00,
2013-04-10 03:43:00,49.0,-99.9,29.88,SE,143,8.0,-999.0,-999,-99.99,,,-99.99,,2013-04-10 07:43:00,
2013-04-10 03:52:00,49.0,-99.9,29.90,NE,50,7.0,-999.0,-999,-99.99,,,-99.99,,2013-04-10 07:52:00,
2013-04-10 04:02:00,49.0,-99.9,29.90,NE,50,7.0,-999.0,-999,-99.99,,,-99.99,,2013-04-10 08:02:00,
2013-04-10 04:12:00,49.0,-99.9,29.95,NNE,29,12.0,-999.0,-999,-99.99,,,-99.99,,2013-04-10 08:12:00,
2013-04-10 04:22:00,49.0,-99.9,29.95,NNE,29,12.0,-999.0,-999,-99.99,,,-99.99,,2013-04-10 08:22:00,
2013-04-10 04:32:00,49.0,-99.9,29.95,NNE,29,12.0,-999.0,-999,-99.99,,,-99.99,,2013-04-10 08:32:00,
2013-04-10 04:43:00,49.0,-99.9,29.97,NNE,20,14.0,-999.0,-999,-99.99,,,-99.99,,2013-04-10 08:43:00,
2013-04-10 04:52:00,49.0,-99.9,29.97,NNE,20,14.0,-999.0,-999,-99.99,,,-99.99,,2013-04-10 08:52:00,
2013-04-10 05:02:00,49.0,-99.9,29.97,NNE,20,14.0,-999.0,-999,-99.99,,,-99.99,,2013-04-10 09:02:00,
2013-04-10 05:12:00,49.0,-99.9,29.97,NNE,20,14.0,-999.0,-999,-99.99,,,-99.99,,2013-04-10 09:12:00,
2013-04-10 05:23:00,48.0,-99.9,29.89,SE,136,10.0,-999.0,-999,-99.99,,,-99.99,,2013-04-10 09:23:00,
2013-04-10 05:33:00,48.0,-99.9,29.89,SE,136,10.0,-999.0,-999,-99.99,,,-99.99,,2013-04-10 09:33:00,
2013-04-10 05:43:00,48.0,-99.9,29.89,SE,136,10.0,-999.0,-999,-99.99,,,-99.99,,2013-04-10 09:43:00,
2013-04-10 05:53:00,48.0,-99.9,29.85,SSE,151,12.0,-999.0,-999,-99.99,,,-99.99,,2013-04-10 09:53:00,
2013-04-10 06:03:00,48.0,-99.9,29.85,SSE,151,12.0,-999.0,-999,-99.99,,,-99.99,,2013-04-10 10:03:00,
2013-04-10 06:13:00,48.0,-99.9,29.85,SSE,151,12.0,-999.0,-999,-99.99,,,-99.99,,2013-04-10 10:13:00,
2013-04-10 06:23:00,48.0,-99.9,29.82,SE,136,11.0,-999.0,-999,-99.99,,,-99.99,,2013-04-10 10:23:00,
2013-04-10 06:33:00,48.0,-99.9,29.82,SE,136,11.0,-999.0,-999,-99.99,,,-99.99,,2013-04-10 10:33:00,
2013-04-10 06:43:00,48.0,-99.9,29.85,ENE,65,4.0,-999.0,-999,-99.99,,,-99.99,,2013-04-10 10:43:00,
2013-04-10 06:53:00,48.0,-99.9,29.85,ENE,65,4.0,-999.0,-999,-99.99,,,-99.99,,2013-04-10 10:53:00,
2013-04-10 07:03:00,48.0,-99.9,29.85,ENE,65,4.0,-999.0,-999,-99.99,,,-99.99,,2013-04-10 11:03:00,
2013-04-10 07:12:00,48.0,-99.9,29.85,ENE,65,4.0,-999.0,-999,-99.99,,,-99.99,,2013-04-10 11:12:00,
2013-04-10 07:22:00,48.0,-99.9,29.87,NE,36,7.0,-999.0,-999,-99.99,,,-99.99,,2013-04-10 11:22:00,
2013-04-10 07:32:00,48.0,-99.9,29.87,NE,36,7.0,-999.0,-999,-99.99,,,-99.99,,2013-04-10 11:32:00,
2013-04-10 07:42:00,48.0,-99.9,29.87,NE,36,7.0,-999.0,-999,-99.99,,,-99.99,,2013-04-10 11:42:00,
2013-04-10 07:53:00,48.0,-99.9,29.88,NE,37,10.0,-999.0,-999,-99.99,,,-99.99,,2013-04-10 11:53:00,
2013-04-10 08:03:00,48.0,-99.9,29.88,NE,37,10.0,-999.0,-999,-99.99,,,-99.99,,2013-04-10 12:03:00,
2013-04-10 08:12:00,48.0,-99.9,29.88,NE,37,10.0,-999.0,-999,-99.99,,,-99.99,,2013-04-10 12:12:00,
2013-04-10 08:23:00,49.0,-99.9,29.88,ENE,67,6.0,-999.0,-999,-99.99,,,-99.99,,2013-04-10 12:23:00,
2013-04-10 08:33:00,49.0,-99.9,29.88,ENE,67,6.0,-999.0,-999,-99.99,,,-99.99,,2013-04-10 12:33:00,
2013-04-10 08:43:00,49.0,-99.9,29.88,ENE,67,6.0,-999.0,-999,-99.99,,,-99.99,,2013-04-10 12:43:00,
2013-04-10 08:52:00,50.0,-99.9,29.90,NE,43,7.0,-999.0,-999,-99.99,,,-99.99,,2013-04-10 12:52:00,
2013-04-10 09:02:00,50.0,-99.9,29.90,NE,43,7.0,-999.0,-999,-99.99,,,-99.99,,2013-04-10 13:02:00,
2013-04-10 09:12:00,50.0,-99.9,29.90,NE,43,7.0,-999.0,-999,-99.99,,,-99.99,,2013-04-10 13:12:00,
2013-04-10 09:23:00,51.0,-99.9,29.89,East,84,6.0,-999.0,-999,-99.99,,,-99.99,,2013-04-10 13:23:00,
2013-04-10 09:33:00,51.0,-99.9,29.89,East,84,6.0,-999.0,-999,-99.99,,,-99.99,,2013-04-10 13:33:00,
2013-04-10 09:43:00,51.0,-99.9,29.89,East,84,6.0,-999.0,-999,-99.99,,,-99.99,,2013-04-10 13:43:00,
2013-04-10 09:53:00,53.0,-99.9,29.90,SE,143,3.0,-999.0,-999,-99.99,,,-99.99,,2013-04-10 13:53:00,
2013-04-10 10:02:00,53.0,-99.9,29.90,SE,143,3.0,-999.0,-999,-99.99,,,-99.99,,2013-04-10 14:02:00,
2013-04-10 10:13:00,53.0,-99.9,29.90,SE,143,3.0,-999.0,-999,-99.99,,,-99.99,,2013-04-10 14:13:00,
2013-04-10 10:22:00,53.0,-99.9,29.89,East,87,3.0,-999.0,-999,-99.99,,,-99.99,,2013-04-10 14:22:00,
2013-04-10 10:33:00,53.0,-99.9,29.89,East,87,3.0,-999.0,-999,-99.99,,,-99.99,,2013-04-10 14:33:00,
2013-04-10 10:42:00,53.0,-99.9,29.89,East,87,3.0,-999.0,-999,-99.99,,,-99.99,,2013-04-10 14:42:00,
2013-04-10 10:52:00,54.0,-99.9,29.90,NW,309,2.0,-999.0,-999,-99.99,,,-99.99,,2013-04-10 14:52:00,
2013-04-10 11:03:00,54.0,-99.9,29.90,NW,309,2.0,-999.0,-999,-99.99,,,-99.99,,2013-04-10 15:03:00,
2013-04-10 11:12:00,54.0,-99.9,29.90,NW,309,2.0,-999.0,-999,-99.99,,,-99.99,,2013-04-10 15:12:00,
2013-04-10 11:23:00,54.0,-99.9,29.90,SW,235,6.0,-999.0,-999,-99.99,,,-99.99,,2013-04-10 15:23:00,
2013-04-10 11:33:00,54.0,-99.9,29.90,SW,235,6.0,-999.0,-999,-99.99,,,-99.99,,2013-04-10 15:33:00,
2013-04-10 11:43:00,54.0,-99.9,29.90,SW,235,6.0,-999.0,-999,-99.99,,,-99.99,,2013-04-10 15:43:00,
2013-04-10 11:53:00,54.0,-99.9,29.90,SSW,210,7.0,-999.0,-999,-99.99,,,-99.99,,2013-04-10 15:53:00,
2013-04-10 12:03:00,54.0,-99.9,29.90,SSW,210,7.0,-999.0,-999,-99.99,,,-99.99,,2013-04-10 16:03:00,
2013-04-10 12:13:00,54.0,-99.9,29.90,SSW,210,7.0,-999.0,-999,-99.99,,,-99.99,,2013-04-10 16:13:00,
2013-04-10 12:23:00,55.0,-99.9,29.92,SW,226,5.0,-999.0,-999,-99.99,,,-99.99,,2013-04-10 16:23:00,
2013-04-10 12:34:00,55.0,-99.9,29.92,SW,226,5.0,-999.0,-999,-99.99,,,-99.99,,2013-04-10 16:34:00,
2013-04-10 12:43:00,55.0,-99.9,29.92,SW,226,5.0,-999.0,-999,-99.99,,,-99.99,,2013-04-10 16:43:00,
2013-04-10 12:53:00,56.0,-99.9,29.91,SW,214,7.0,-999.0,-999,-99.99,,,-99.99,,2013-04-10 16:53:00,
2013-04-10 13:03:00,56.0,-99.9,29.91,SW,214,7.0,-999.0,-999,-99.99,,,-99.99,,2013-04-10 17:03:00,
2013-04-10 13:13:00,56.0,-99.9,29.91,SW,214,7.0,-999.0,-999,-99.99,,,-99.99,,2013-04-10 17:13:00,
2013-04-10 13:23:00,60.0,-99.9,29.90,SSE,155,11.0,-999.0,-999,-99.99,,,-99.99,,2013-04-10 17:23:00,
2013-04-10 13:34:00,60.0,-99.9,29.90,SSE,155,11.0,-999.0,-999,-99.99,,,-99.99,,2013-04-10 17:34:00,
2013-04-10 13:43:00,59.0,-99.9,29.91,SSE,155,14.0,-999.0,-999,-99.99,,,-99.99,,2013-04-10 17:43:00,
2013-04-10 13:53:00,59.0,-99.9,29.91,SSE,155,14.0,-999.0,-999,-99.99,,,-99.99,,2013-04-10 17:53:00,
2013-04-10 14:03:00,59.0,-99.9,29.91,SSE,155,14.0,-999.0,-999,-99.99,,,-99.99,,2013-04-10 18:03:00,
2013-04-10 14:12:00,59.0,-99.9,29.91,SSE,155,14.0,-999.0,-999,-99.99,,,-99.99,,2013-04-10 18:12:00,
2013-04-10 14:23:00,58.0,-99.9,29.90,SE,140,14.0,-999.0,-999,-99.99,,,-99.99,,2013-04-10 18:23:00,
2013-04-10 14:33:00,58.0,-99.9,29.90,SE,140,14.0,-999.0,-999,-99.99,,,-99.99,,2013-04-10 18:33:00,
2013-04-10 14:43:00,58.0,-99.9,29.90,SE,146,13.0,-999.0,-999,-99.99,,,-99.99,,2013-04-10 18:43:00,
2013-04-10 14:53:00,58.0,-99.9,29.90,SE,146,13.0,-999.0,-999,-99.99,,,-99.99,,2013-04-10 18:53:00,
2013-04-10 15:03:00,58.0,-99.9,29.90,SE,146,13.0,-999.0,-999,-99.99,,,-99.99,,2013-04-10 19:03:00,
2013-04-10 15:13:00,58.0,-99.9,29.90,SE,146,13.0,-999.0,-999,-99.99,,,-99.99,,2013-04-10 19:13:00,
2013-04-10 15:22:00,58.0,-99.9,29.90,SE,140,11.0,-999.0,-999,-99.99,,,-99.99,,2013-04-10 19:22:00,
2013-04-10 15:33:00,58.0,-99.9,29.90,SE,140,11.0,-999.0,-999,-99.99,,,-99.99,,2013-04-10 19:33:00,
2013-04-10 15:42:00,58.0,-99.9,29.90,SE,140,11.0,-999.0,-999,-99.99,,,-99.99,,2013-04-10 19:42:00,
2013-04-10 15:53:00,59.0,-99.9,29.88,SSE,153,11.0,-999.0,-999,-99.99,,,-99.99,,2013-04-10 19:53:00,
2013-04-10 16:03:00,59.0,-99.9,29.88,SSE,153,11.0,-999.0,-999,-99.99,,,-99.99,,2013-04-10 20:03:00,
2013-04-10 16:12:00,59.0,-99.9,29.88,SSE,153,11.0,-999.0,-999,-99.99,,,-99.99,,2013-04-10 20:12:00,
2013-04-10 16:23:00,58.0,-99.9,29.87,SE,146,9.0,-999.0,-999,-99.99,,,-99.99,,2013-04-10 20:23:00,
2013-04-10 16:33:00,58.0,-99.9,29.87,SE,146,9.0,-999.0,-999,-99.99,,,-99.99,,2013-04-10 20:33:00,
2013-04-10 16:43:00,58.0,-99.9,29.87,SE,146,9.0,-999.0,-999,-99.99,,,-99.99,,2013-04-10 20:43:00,
2013-04-10 16:53:00,52.0,-99.9,29.86,SSW,192,15.0,-999.0,-999,-99.99,,,-99.99,,2013-04-10 20:53:00,
2013-04-10 17:03:00,52.0,-99.9,29.86,SSW,192,15.0,-999.0,-999,-99.99,,,-99.99,,2013-04-10 21:03:00,
2013-04-10 17:13:00,52.0,-99.9,29.86,SSW,192,15.0,-999.0,-999,-99.99,,,-99.99,,2013-04-10 21:13:00,
2013-04-10 17:22:00,52.0,-99.9,29.87,SSW,192,13.0,-999.0,-999,-99.99,,,-99.99,,2013-04-10 21:22:00,
2013-04-10 17:33:00,52.0,-99.9,29.87,SSW,192,13.0,-999.0,-999,-99.99,,,-99.99,,2013-04-10 21:33:00,
2013-04-10 17:43:00,53.0,-99.9,29.87,South,183,11.0,-999.0,-999,-99.99,,,-99.99,,2013-04-10 21:43:00,
2013-04-10 17:53:00,53.0,-99.9,29.87,South,183,11.0,-999.0,-999,-99.99,,,-99.99,,2013-04-10 21:53:00,
2013-04-10 18:03:00,53.0,-99.9,29.87,South,183,11.0,-999.0,-999,-99.99,,,-99.99,,2013-04-10 22:03:00,
2013-04-10 18:13:00,53.0,-99.9,29.87,South,183,11.0,-999.0,-999,-99.99,,,-99.99,,2013-04-10 22:13:00,
2013-04-10 18:23:00,51.0,-99.9,29.89,SE,141,9.0,-999.0,-999,-99.99,,,-99.99,,2013-04-10 22:23:00,
2013-04-10 18:34:00,51.0,-99.9,29.89,SE,141,9.0,-999.0,-999,-99.99,,,-99.99,,2013-04-10 22:34:00,
2013-04-10 18:43:00,51.0,-99.9,29.89,SE,141,9.0,-999.0,-999,-99.99,,,-99.99,,2013-04-10 22:43:00,
2013-04-10 18:53:00,49.0,-99.9,29.88,SE,137,13.0,-999.0,-999,-99.99,,,-99.99,,2013-04-10 22:53:00,
2013-04-10 19:03:00,49.0,-99.9,29.88,SE,137,13.0,-999.0,-999,-99.99,,,-99.99,,2013-04-10 23:03:00,
2013-04-10 19:12:00,49.0,-99.9,29.88,SE,137,13.0,-999.0,-999,-99.99,,,-99.99,,2013-04-10 23:12:00,
2013-04-10 19:22:00,49.0,-99.9,29.87,SSE,157,12.0,-999.0,-999,-99.99,,,-99.99,,2013-04-10 23:22:00,
2013-04-10 19:33:00,49.0,-99.9,29.87,SSE,157,12.0,-999.0,-999,-99.99,,,-99.99,,2013-04-10 23:33:00,
2013-04-10 19:43:00,49.0,-99.9,29.87,SSE,157,12.0,-999.0,-999,-99.99,,,-99.99,,2013-04-10 23:43:00,
2013-04-10 19:53:00,49.0,-99.9,29.86,South,171,13.0,-999.0,-999,-99.99,,,-99.99,,2013-04-10 23:53:00,
2013-04-10 20:02:00,49.0,-99.9,29.86,South,171,13.0,-999.0,-999,-99.99,,,-99.99,,2013-04-11 00:02:00,
2013-04-10 20:13:00,49.0,-99.9,29.86,South,171,13.0,-999.0,-999,-99.99,,,-99.99,,2013-04-11 00:13:00,
2013-04-10 20:23:00,49.0,-99.9,29.84,South,181,10.0,-999.0,-999,-99.99,,,-99.99,,2013-04-11 00:23:00,
2013-04-10 20:32:00,49.0,-99.9,29.84,South,181,10.0,-999.0,-999,-99.99,,,-99.99,,2013-04-11 00:32:00,
2013-04-10 20:43:00,48.0,-99.9,29.85,SSW,197,10.0,-999.0,-999,-99.99,,,-99.99,,2013-04-11 00:43:00,
2013-04-10 20:53:00,48.0,-99.9,29.85,SSW,197,10.0,-999.0,-999,-99.99,,,-99.99,,2013-04-11 00:53:00,
2013-04-10 21:02:00,48.0,-99.9,29.85,SSW,197,10.0,-999.0,-999,-99.99,,,-99.99,,2013-04-11 01:02:00,
2013-04-10 21:13:00,48.0,-99.9,29.85,SSW,197,10.0,-999.0,-999,-99.99,,,-99.99,,2013-04-11 01:13:00,
2013-04-10 21:22:00,47.0,-99.9,29.88,WNW,286,5.0,-999.0,-999,-99.99,,,-99.99,,2013-04-11 01:22:00,
2013-04-10 21:33:00,47.0,-99.9,29.88,WNW,286,5.0,-999.0,-999,-99.99,,,-99.99,,2013-04-11 01:33:00,
2013-04-10 21:42:00,47.0,-99.9,29.88,WNW,286,5.0,-999.0,-999,-99.99,,,-99.99,,2013-04-11 01:42:00,
2013-04-10 21:52:00,48.0,-99.9,29.90,SSW,200,4.0,-999.0,-999,-99.99,,,-99.99,,2013-04-11 01:52:00,
2013-04-10 22:03:00,48.0,-99.9,29.90,SSW,200,4.0,-999.0,-999,-99.99,,,-99.99,,2013-04-11 02:03:00,
2013-04-10 22:13:00,48.0,-99.9,29.90,SSW,200,4.0,-999.0,-999,-99.99,,,-99.99,,2013-04-11 02:13:00,
2013-04-10 22:22:00,48.0,-99.9,29.86,South,190,8.0,-999.0,-999,-99.99,,,-99.99,,2013-04-11 02:22:00,
2013-04-10 22:32:00,48.0,-99.9,29.86,South,190,8.0,-999.0,-999,-99.99,,,-99.99,,2013-04-11 02:32:00,
2013-04-10 22:42:00,48.0,-99.9,29.86,South,190,8.0,-999.0,-999,-99.99,,,-99.99,,2013-04-11 02:42:00,
2013-04-10 22:53:00,48.0,-99.9,29.83,SSE,168,9.0,-999.0,-999,-99.99,,,-99.99,,2013-04-11 02:53:00,
2013-04-10 23:02:00,48.0,-99.9,29.83,SSE,168,9.0,-999.0,-999,-99.99,,,-99.99,,2013-04-11 03:02:00,
2013-04-10 23:12:00,48.0,-99.9,29.82,SSE,157,7.0,-999.0,-999,-99.99,,,-99.99,,2013-04-11 03:12:00,
2013-04-10 23:22:00,48.0,-99.9,29.82,SSE,157,7.0,-999.0,-999,-99.99,,,-99.99,,2013-04-11 03:22:00,
2013-04-10 23:33:00,48.0,-99.9,29.82,SSE,157,7.0,-999.0,-999,-99.99,,,-99.99,,2013-04-11 03:33:00,
2013-04-10 23:43:00,48.0,-99.9,29.82,SSE,157,7.0,-999.0,-999,-99.99,,,-99.99,,2013-04-11 03:43:00,
2013-04-10 23:54:00,48.0,-99.9,29.85,NE,47,2.0,-999.0,-999,-99.99,,,-99.99,,2013-04-11 03:54:00,